Time,TemperatureF,DewpointF,PressureIn,WindDirection,WindDirectionDegrees,WindSpeedMPH,WindSpeedGustMPH,Humidity,HourlyPrecipIn,Conditions,Clouds,dailyrainin,SoftwareType,DateUTC
2013-04-10 00:02:00,46.3,45.0,29.91,SE,130,0.0,-999.0,96,-99.99,,,0.82,weatherlink.com 1.10,2013-04-10 04:02:00,
2013-04-10 00:17:00,46.4,46.0,29.92,SE,129,0.0,-999.0,97,-99.99,,,0.82,weatherlink.com 1.10,2013-04-10 04:17:00,
2013-04-10 00:32:00,46.4,46.0,29.93,NNE,15,2.0,-999.0,97,-99.99,,,0.82,weatherlink.com 1.10,2013-04-10 04:32:00,
2013-04-10 00:47:00,45.8,45.0,29.93,NNE,32,6.0,-999.0,97,-99.99,,,0.00,weatherlink.com 1.10,2013-04-10 04:47:00,
2013-04-10 01:02:00,45.1,44.0,29.93,NNE,30,8.0,-999.0,96,-99.99,,,0.00,weatherlink.com 1.10,2013-04-10 05:02:00,
2013-04-10 01:17:00,44.3,43.0,29.94,NNE,24,3.0,-999.0,96,-99.99,,,0.00,weatherlink.com 1.10,2013-04-10 05:17:00,
2013-04-10 01:32:00,44.0,43.0,29.93,NNE,18,4.0,-999.0,97,-99.99,,,0.00,weatherlink.com 1.10,2013-04-10 05:32:00,
2013-04-10 01:47:00,44.0,43.0,29.96,NE,36,2.0,-999.0,97,-99.99,,,0.01,weatherlink.com 1.10,2013-04-10 05:47:00,
2013-04-10 02:02:00,44.0,43.0,29.95,NNE,17,2.0,-999.0,97,-99.99,,,0.02,weatherlink.com 1.10,2013-04-10 06:02:00,
2013-04-10 02:17:00,44.1,43.0,29.94,NNE,27,1.0,-999.0,97,-99.99,,,0.02,weatherlink.com 1.10,2013-04-10 06:17:00,
2013-04-10 02:32:00,44.2,43.0,29.94,ENE,61,3.0,-999.0,97,-99.99,,,0.02,weatherlink.com 1.10,2013-04-10 06:32:00,
2013-04-10 02:47:00,44.4,44.0,29.95,NNW,343,1.0,-999.0,97,-99.99,,,0.02,weatherlink.com 1.10,2013-04-10 06:47:00,
2013-04-10 03:02:00,44.5,44.0,29.95,North,360,0.0,-999.0,97,-99.99,,,0.02,weatherlink.com 1.10,2013-04-10 07:02:00,
2013-04-10 03:32:00,44.7,44.0,29.95,ENE,57,0.0,-999.0,97,-99.99,,,0.02,weatherlink.com 1.10,2013-04-10 07:32:00,
2013-04-10 03:47:00,45.0,44.0,29.95,ENE,57,0.0,-999.0,97,-99.99,,,0.02,weatherlink.com 1.10,2013-04-10 07:47:00,
2013-04-10 04:02:00,45.0,44.0,29.95,ENE,57,0.0,-999.0,97,-99.99,,,0.02,weatherlink.com 1.10,2013-04-10 08:02:00,
2013-04-10 04:17:00,45.0,44.0,29.95,NE,56,0.0,-999.0,97,-99.99,,,0.02,weatherlink.com 1.10,2013-04-10 08:17:00,
2013-04-10 04:32:00,45.0,44.0,29.96,NE,56,0.0,-999.0,97,-99.99,,,0.02,weatherlink.com 1.10,2013-04-10 08:32:00,
2013-04-10 04:47:00,45.0,44.0,29.96,NE,56,0.0,-999.0,97,-99.99,,,0.02,weatherlink.com 1.10,2013-04-10 08:47:00,
2013-04-10 05:02:00,45.0,44.0,29.96,NE,40,1.0,-999.0,97,-99.99,,,0.02,weatherlink.com 1.10,2013-04-10 09:02:00,
2013-04-10 05:17:00,44.9,44.0,29.96,NNE,24,2.0,-999.0,97,-99.99,,,0.02,weatherlink.com 1.10,2013-04-10 09:17:00,
2013-04-10 05:32:00,44.7,44.0,29.95,NNE,25,2.0,-999.0,97,-99.99,,,0.02,weatherlink.com 1.10,2013-04-10 09:32:00,
2013-04-10 05:47:00,44.5,44.0,29.96,NE,34,0.0,-999.0,97,-99.99,,,0.02,weatherlink.com 1.10,2013-04-10 09:47:00,
2013-04-10 06:02:00,44.5,44.0,29.96,NE,34,2.0,-999.0,97,-99.99,,,0.02,weatherlink.com 1.10,2013-04-10 10:02:00,
2013-04-10 06:17:00,44.4,44.0,29.97,NE,34,2.0,-999.0,97,-99.99,,,0.02,weatherlink.com 1.10,2013-04-10 10:17:00,
2013-04-10 06:32:00,44.2,43.0,29.95,NE,51,3.0,-999.0,97,-99.99,,,0.02,weatherlink.com 1.10,2013-04-10 10:32:00,
2013-04-10 06:47:00,43.9,43.0,29.97,North,360,6.0,-999.0,97,-99.99,,,0.02,weatherlink.com 1.10,2013-04-10 10:47:00,
2013-04-10 07:02:00,43.5,43.0,29.99,NE,48,3.0,-999.0,97,-99.99,,,0.02,weatherlink.com 1.10,2013-04-10 11:02:00,
2013-04-10 07:17:00,43.2,42.0,29.99,ENE,74,3.0,-999.0,97,-99.99,,,0.02,weatherlink.com 1.10,2013-04-10 11:17:00,
2013-04-10 07:32:00,42.9,42.0,29.99,NNE,30,3.0,-999.0,97,-99.99,,,0.02,weatherlink.com 1.10,2013-04-10 11:32:00,
2013-04-10 07:47:00,42.8,42.0,29.98,NE,50,3.0,-999.0,97,-99.99,,,0.02,weatherlink.com 1.10,2013-04-10 11:47:00,
2013-04-10 08:02:00,42.8,42.0,29.99,East,88,2.0,-999.0,97,-99.99,,,0.02,weatherlink.com 1.10,2013-04-10 12:02:00,
2013-04-10 08:17:00,42.8,42.0,30.00,NE,44,1.0,-999.0,98,-99.99,,,0.02,weatherlink.com 1.10,2013-04-10 12:17:00,
2013-04-10 08:32:00,42.9,42.0,29.99,ENE,64,2.0,-999.0,97,-99.99,,,0.02,weatherlink.com 1.10,2013-04-10 12:32:00,
2013-04-10 08:47:00,43.1,42.0,29.99,ENE,58,5.0,-999.0,97,-99.99,,,0.02,weatherlink.com 1.10,2013-04-10 12:47:00,
2013-04-10 09:02:00,43.3,43.0,29.98,East,82,1.0,-999.0,97,-99.99,,,0.02,weatherlink.com 1.10,2013-04-10 13:02:00,
2013-04-10 09:17:00,43.5,43.0,29.99,East,80,2.0,-999.0,98,-99.99,,,0.02,weatherlink.com 1.10,2013-04-10 13:17:00,
2013-04-10 09:32:00,43.6,43.0,30.00,ENE,60,0.0,-999.0,98,-99.99,,,0.02,weatherlink.com 1.10,2013-04-10 13:32:00,
2013-04-10 09:47:00,43.5,43.0,29.99,East,82,2.0,-999.0,98,-99.99,,,0.02,weatherlink.com 1.10,2013-04-10 13:47:00,
2013-04-10 10:02:00,43.6,43.0,29.99,ENE,62,4.0,-999.0,98,-99.99,,,0.02,weatherlink.com 1.10,2013-04-10 14:02:00,
2013-04-10 10:17:00,43.6,43.0,29.99,ENE,59,1.0,-999.0,98,-99.99,,,0.02,weatherlink.com 1.10,2013-04-10 14:17:00,
2013-04-10 10:32:00,43.7,43.0,30.00,ENE,67,1.0,-999.0,98,-99.99,,,0.02,weatherlink.com 1.10,2013-04-10 14:32:00,
2013-04-10 11:02:00,43.4,43.0,30.00,NNE,21,3.0,-999.0,98,-99.99,,,0.07,weatherlink.com 1.10,2013-04-10 15:02:00,
2013-04-10 11:17:00,42.7,42.0,29.98,NE,34,5.0,-999.0,98,-99.99,,,0.14,weatherlink.com 1.10,2013-04-10 15:17:00,
2013-04-10 11:32:00,42.2,42.0,29.98,ENE,76,3.0,-999.0,98,-99.99,,,0.16,weatherlink.com 1.10,2013-04-10 15:32:00,
2013-04-10 11:47:00,42.1,42.0,30.02,NNW,347,3.0,-999.0,98,-99.99,,,0.16,weatherlink.com 1.10,2013-04-10 15:47:00,
2013-04-10 12:02:00,41.7,41.0,29.93,ENE,61,6.0,-999.0,98,-99.99,,,0.20,weatherlink.com 1.10,2013-04-10 16:02:00,
2013-04-10 12:17:00,41.4,41.0,29.97,East,93,2.0,-999.0,98,-99.99,,,0.22,weatherlink.com 1.10,2013-04-10 16:17:00,
2013-04-10 12:32:00,41.6,41.0,29.94,NE,47,1.0,-999.0,98,-99.99,,,0.22,weatherlink.com 1.10,2013-04-10 16:32:00,
2013-04-10 12:47:00,42.3,42.0,29.95,NE,38,5.0,-999.0,98,-99.99,,,0.22,weatherlink.com 1.10,2013-04-10 16:47:00,
2013-04-10 13:02:00,42.1,42.0,29.95,East,86,3.0,-999.0,98,-99.99,,,0.22,weatherlink.com 1.10,2013-04-10 17:02:00,
2013-04-10 13:32:00,42.3,42.0,29.93,ENE,59,4.0,-999.0,98,-99.99,,,0.22,weatherlink.com 1.10,2013-04-10 17:32:00,
2013-04-10 13:47:00,42.2,42.0,29.93,East,86,3.0,-999.0,98,-99.99,,,0.22,weatherlink.com 1.10,2013-04-10 17:47:00,
2013-04-10 14:02:00,42.2,42.0,29.93,NE,55,0.0,-999.0,98,-99.99,,,0.22,weatherlink.com 1.10,2013-04-10 18:02:00,
2013-04-10 14:17:00,42.2,42.0,29.92,East,85,3.0,-999.0,98,-99.99,,,0.22,weatherlink.com 1.10,2013-04-10 18:17:00,
2013-04-10 14:32:00,42.0,42.0,29.92,NE,45,2.0,-999.0,98,-99.99,,,0.22,weatherlink.com 1.10,2013-04-10 18:32:00,
2013-04-10 14:46:00,42.0,42.0,29.91,NNE,30,3.0,-999.0,98,-99.99,,,0.22,weatherlink.com 1.10,2013-04-10 18:46:00,
2013-04-10 15:02:00,41.6,41.0,29.91,NE,36,2.0,-999.0,98,-99.99,,,0.23,weatherlink.com 1.10,2013-04-10 19:02:00,
2013-04-10 15:17:00,41.0,41.0,29.90,NE,46,3.0,-999.0,98,-99.99,,,0.29,weatherlink.com 1.10,2013-04-10 19:17:00,
2013-04-10 15:32:00,40.0,40.0,29.89,ENE,72,6.0,-999.0,98,-99.99,,,0.38,weatherlink.com 1.10,2013-04-10 19:32:00,
2013-04-10 15:47:00,39.4,39.0,29.86,ENE,69,3.0,-999.0,98,-99.99,,,0.51,weatherlink.com 1.10,2013-04-10 19:47:00,